Weather reports worldwide

Advertisment
Redesdale Camp, United Kingdom (3230): temperature & dewpoint: 09.08.2020 19:00:00 - 15.08.2020 19:00:00 (BST)Redesdale Camp, United Kingdom (3230): temperature -20cm & temperature -100cm: 09.08.2020 19:00:00 - 15.08.2020 19:00:00 (BST)Redesdale Camp, United Kingdom (3230): wind speed: 09.08.2020 19:00:00 - 15.08.2020 19:00:00 (BST)Redesdale Camp, United Kingdom (3230): wind direction: 09.08.2020 19:00:00 - 15.08.2020 19:00:00 (BST)Redesdale Camp, United Kingdom (3230): reduced air pressure: 09.08.2020 19:00:00 - 15.08.2020 19:00:00 (BST)Redesdale Camp, United Kingdom (3230): visibility: 09.08.2020 19:00:00 - 15.08.2020 19:00:00 (BST)Redesdale Camp, United Kingdom (3230): precipitation: 09.08.2020 19:00:00 - 15.08.2020 19:00:00 (BST)
Date & Time tt [°C] td [°C] tt -20cm [°C] tt -100cm [°C] ff [km/h] ff [kn] dd ppp [hPa] vv [km] rr [mm]
15.08.2020 19:00:00 14,9 13,5 - - 8 4 ESE 1018,0 45 0,0
15.08.2020 18:00:00 15,4 13,8 - - 9 5 E 1018,0 26 0,0
15.08.2020 17:00:00 15,8 13,9 - - 9 5 E 1018,2 29 0,0
15.08.2020 16:00:00 16,0 13,9 - - 5 3 SE 1018,5 65 0,0
15.08.2020 15:00:00 15,8 14,0 - - 13 7 E 1018,9 13 0,0
15.08.2020 14:00:00 15,6 13,7 - - 11 6 E 1019,1 45 0,0
15.08.2020 13:00:00 15,6 13,9 - - 9 5 E 1019,0 55 0,0
15.08.2020 12:00:00 15,0 13,4 - - 8 4 E 1019,1 60 0,0
15.08.2020 11:00:00 14,5 13,2 - - 9 5 E 1019,3 55 0,0
15.08.2020 10:00:00 13,7 12,7 17,9 15,7 8 4 E 1019,2 10 0,0
15.08.2020 09:00:00 13,2 12,7 - - 9 5 E 1019,3 4,0 0,0
15.08.2020 08:00:00 12,4 12,0 - - 9 5 E 1019,3 1,5 0,0
15.08.2020 07:00:00 11,7 11,7 - - 5 3 E 1019,2 4,3 0,0
15.08.2020 06:00:00 11,4 11,3 - - 8 4 E 1018,9 13 0,0
15.08.2020 05:00:00 11,5 11,5 - - 5 3 E 1019,0 2,4 0,0
15.08.2020 04:00:00 11,8 11,7 - - 8 4 E 1019,2 2,7 0,0
15.08.2020 03:00:00 11,8 11,8 - - 8 4 ESE 1019,5 2,3 0,0
15.08.2020 02:00:00 12,0 11,9 - - 8 4 ENE 1019,3 4,2 0,0
15.08.2020 01:00:00 12,1 11,9 - - 8 4 E 1019,5 6 0,0
15.08.2020 00:00:00 12,2 12,0 - - 8 4 E 1019,5 3,1 0,0
14.08.2020 23:00:00 12,5 12,2 - - 9 5 E 1019,5 9 0,0
14.08.2020 22:00:00 12,9 12,5 - - 9 5 E 1019,4 0,2 0,0
14.08.2020 21:00:00 13,4 12,8 - - 9 5 E 1019,3 21 0,0
14.08.2020 20:00:00 14,2 13,3 - - 13 7 E 1018,7 24 0,0
14.08.2020 19:00:00 14,7 13,4 - - 13 7 E 1018,2 45 0,0
14.08.2020 18:00:00 15,4 13,8 - - 15 8 E 1018,1 45 0,0
14.08.2020 17:00:00 16,4 14,4 - - 13 7 E 1017,8 50 0,0
14.08.2020 16:00:00 16,9 14,5 - - 11 6 ESE 1017,7 55 0,0
14.08.2020 15:00:00 17,1 14,6 - - 11 6 E 1017,8 60 0,0
14.08.2020 14:00:00 17,5 14,6 - - 13 7 E 1017,9 70 0,0
14.08.2020 13:00:00 16,9 14,2 - - 15 8 E 1017,9 65 0,0
14.08.2020 12:00:00 16,8 14,7 - - 8 4 ENE 1018,1 75 0,0
14.08.2020 11:00:00 14,7 13,2 - - 9 5 ENE 1018,4 40 0,0
14.08.2020 10:00:00 14,4 13,0 18,0 15,5 11 6 ENE 1018,5 65 0,0
14.08.2020 09:00:00 14,3 12,8 - - 8 4 NE 1018,1 75 0,0
14.08.2020 08:00:00 13,9 12,8 - - 8 4 NE 1017,8 75 0,0
14.08.2020 07:00:00 13,4 12,6 - - 11 6 NE 1017,7 75 0,0
14.08.2020 06:00:00 13,3 12,5 - - 9 5 NE 1017,8 75 0,0
14.08.2020 05:00:00 13,3 12,5 - - 4 2 NE 1017,8 45 0,0
14.08.2020 04:00:00 13,4 12,5 - - 4 2 NNE 1018,2 70 0,0
14.08.2020 03:00:00 13,4 12,5 - - 8 4 N 1018,1 40 0,0
14.08.2020 02:00:00 13,4 12,5 - - 8 4 NNW 1018,4 70 0,0
14.08.2020 01:00:00 13,5 12,6 - - 9 5 N 1018,4 40 0,0
14.08.2020 00:00:00 13,8 12,9 - - 9 5 NNE 1018,9 40 0,0
13.08.2020 23:00:00 13,8 13,0 - - 9 5 NNE 1018,8 28 0,0
13.08.2020 22:00:00 13,9 13,2 - - 8 4 NE 1019,0 24 0,0
13.08.2020 21:00:00 14,2 13,3 - - 13 7 NE 1018,7 23 0,0
13.08.2020 20:00:00 14,8 13,4 - - 13 7 NE 1018,3 27 0,0
13.08.2020 19:00:00 16,0 14,0 - - 9 5 ENE 1018,1 26 0,0
13.08.2020 18:00:00 17,1 14,5 - - 15 8 NE 1017,7 35 0,0
13.08.2020 17:00:00 18,2 15,2 - - 11 6 ENE 1017,7 40 0,0
13.08.2020 16:00:00 19,0 15,8 - - 13 7 NE 1017,8 35 0,0
13.08.2020 15:00:00 19,7 16,2 - - 13 7 ENE 1017,8 35 0,0
13.08.2020 14:00:00 19,8 16,4 - - 11 6 N 1018,0 40 0,0
13.08.2020 13:00:00 21,0 16,7 - - 15 8 NE 1017,5 55 0,0
13.08.2020 12:00:00 18,2 15,1 - - 11 6 NNW 1017,9 55 0,0
13.08.2020 11:00:00 18,1 15,1 - - 15 8 N 1017,8 40 0,0
13.08.2020 10:00:00 18,9 15,2 17,7 15,4 8 4 SW 1017,7 45 0,0
13.08.2020 09:00:00 17,1 15,5 - - 9 5 NE 1017,6 26 0,0
13.08.2020 08:00:00 15,9 15,3 - - 9 5 N 1017,5 18 0,0
13.08.2020 07:00:00 14,6 14,5 - - 2 1 NW 1017,6 18 0,0
13.08.2020 06:00:00 13,9 13,9 - - 4 2 WNW 1017,6 27 0,0
13.08.2020 05:00:00 12,8 12,8 - - 2 1 NNW 1017,6 12 0,0
13.08.2020 04:00:00 13,0 12,8 - - 2 1 SE 1017,5 0,2 0,0
13.08.2020 03:00:00 12,2 11,7 - - 2 1 ESE 1017,6 15 0,0
13.08.2020 02:00:00 13,2 12,4 - - 2 1 NNW 1017,6 23 0,0
13.08.2020 01:00:00 14,3 13,6 - - 5 3 N 1017,6 27 0,0
13.08.2020 00:00:00 14,4 13,5 - - 2 1 NW 1018,0 9 0,0
12.08.2020 23:00:00 16,1 14,9 - - 8 4 N 1017,3 28 0,0
12.08.2020 22:00:00 16,6 14,7 - - 4 2 W 1017,0 23 0,0
12.08.2020 21:00:00 18,2 16,1 - - 13 7 N 1015,7 27 0,0
12.08.2020 20:00:00 21,2 16,2 - - 15 8 ENE 1015,9 40 0,0
12.08.2020 19:00:00 23,0 17,6 - - 9 5 E 1015,7 35 0,0
12.08.2020 18:00:00 23,6 17,4 - - 9 5 E 1015,6 40 0,0
12.08.2020 17:00:00 23,5 18,2 - - 16 9 E 1015,6 35 0,0
12.08.2020 16:00:00 24,1 18,6 - - 15 8 ESE 1015,5 35 0,0
12.08.2020 15:00:00 23,7 18,6 - - 13 7 E 1015,7 35 0,0
12.08.2020 14:00:00 22,9 17,2 - - 9 5 NE 1015,9 30 0,0
12.08.2020 13:00:00 22,5 18,3 - - 9 5 NE 1016,1 25 0,0
12.08.2020 12:00:00 21,3 18,0 - - 8 4 E 1016,3 18 0,0
12.08.2020 11:00:00 19,6 17,2 - - 15 8 E 1016,4 12 0,0
12.08.2020 10:00:00 19,7 17,3 17,2 15,2 13 7 NNW 1016,1 16 0,0
12.08.2020 09:00:00 16,7 15,4 - - 18 10 N 1016,0 10 0,0
12.08.2020 08:00:00 16,2 16,2 - - 5 3 NW 1015,8 14 0,0
12.08.2020 07:00:00 12,3 12,3 - - 2 1 NW 1015,9 0,7 0,0
12.08.2020 06:00:00 13,5 13,5 - - 5 3 NNW 1015,7 0,1 0,0
12.08.2020 05:00:00 13,6 13,5 - - 4 2 W 1015,7 1,7 0,0
12.08.2020 04:00:00 13,3 13,0 - - 2 1 NE 1016,0 0,8 0,0
12.08.2020 03:00:00 14,4 14,1 - - 4 2 N 1016,3 0,5 0,0
12.08.2020 02:00:00 15,8 15,6 - - 4 2 W 1016,4 3,4 0,0
12.08.2020 01:00:00 16,5 16,3 - - 4 2 WNW 1016,9 4,4 0,0
12.08.2020 00:00:00 16,3 15,9 - - 5 3 NNW 1017,2 3,1 0,0
11.08.2020 23:00:00 16,8 16,3 - - 4 2 N 1017,5 4,6 0,0
11.08.2020 22:00:00 17,5 16,6 - - 2 1 NNE 1017,6 4,8 0,0
11.08.2020 21:00:00 18,6 17,0 - - 4 2 ENE 1017,0 10 0,0
11.08.2020 20:00:00 19,9 17,4 - - 8 4 NE 1016,6 15 0,0
11.08.2020 19:00:00 21,4 18,6 - - 8 4 ENE 1016,3 15 0,0
11.08.2020 18:00:00 22,1 19,9 - - 2 1 N 1016,4 7 0,0
11.08.2020 17:00:00 21,7 20,6 - - 2 1 WSW 1016,8 7 0,2
11.08.2020 16:00:00 20,2 19,1 - - 8 4 NNW 1017,5 7 1,2
11.08.2020 15:00:00 19,9 18,8 - - 2 1 NW 1017,7 9 0,4
11.08.2020 14:00:00 19,4 18,2 - - 5 3 ESE 1017,9 13 2,0
11.08.2020 13:00:00 21,0 17,7 - - 11 6 E 1018,0 19 0,0
11.08.2020 12:00:00 19,9 17,5 - - 4 2 E 1018,0 18 0,0
11.08.2020 11:00:00 17,5 16,3 - - 5 3 SSE 1018,3 14 0,8
11.08.2020 10:00:00 16,1 15,5 17,2 15,2 5 3 S 1018,7 9 0,8
11.08.2020 09:00:00 16,4 15,3 - - 11 6 SSE 1017,9 16 0,0
11.08.2020 08:00:00 14,3 13,9 - - 8 4 WSW 1018,0 6 1,0
11.08.2020 07:00:00 14,1 13,8 - - 4 2 ESE 1018,7 8 0,0
11.08.2020 06:00:00 13,5 13,1 - - 5 3 W 1018,8 11 0,0
11.08.2020 05:00:00 13,4 12,9 - - 11 6 N 1019,6 13 0,0
11.08.2020 04:00:00 13,5 13,2 - - 9 5 SSW 1020,6 15 0,2
11.08.2020 03:00:00 11,9 11,4 - - 4 2 N 1019,2 15 0,0
11.08.2020 02:00:00 11,5 10,7 - - 0 0 N 1019,9 13 0,0
11.08.2020 01:00:00 12,2 11,2 - - 8 4 N 1019,8 19 0,0
11.08.2020 00:00:00 11,9 11,1 - - 5 3 N 1020,0 15 0,0
10.08.2020 23:00:00 12,6 11,4 - - 2 1 WNW 1020,1 15 0,0
10.08.2020 22:00:00 14,1 12,6 - - 8 4 NNW 1019,8 16 0,0
10.08.2020 21:00:00 15,4 12,9 - - 4 2 NNW 1019,3 19 0,0
10.08.2020 20:00:00 17,7 13,1 - - 4 2 NNE 1019,0 22 0,0
10.08.2020 19:00:00 19,6 13,5 - - 5 3 E 1018,8 19 0,0
10.08.2020 18:00:00 19,4 13,3 - - 8 4 NE 1018,6 29 0,0
10.08.2020 17:00:00 20,4 12,7 - - 13 7 ENE 1018,9 35 0,0
10.08.2020 16:00:00 21,2 13,8 - - 16 9 E 1018,7 35 0,0
10.08.2020 15:00:00 21,2 13,8 - - 15 8 E 1018,7 30 0,0
10.08.2020 14:00:00 21,6 15,5 - - 16 9 E 1018,8 27 0,0
10.08.2020 13:00:00 21,0 14,9 - - 13 7 E 1019,1 27 0,0
10.08.2020 12:00:00 19,4 13,7 - - 9 5 E 1019,4 27 0,0
10.08.2020 11:00:00 18,4 13,9 - - 11 6 E 1019,7 24 0,0
10.08.2020 10:00:00 17,2 13,4 16,9 15,0 13 7 E 1019,9 22 0,0
10.08.2020 09:00:00 15,0 13,4 - - 13 7 E 1020,3 15 0,0
10.08.2020 08:00:00 14,1 12,8 - - 9 5 E 1020,3 13 0,0
10.08.2020 07:00:00 13,8 12,9 - - 8 4 ENE 1020,4 12 0,0
10.08.2020 06:00:00 13,4 12,6 - - 4 2 ENE 1020,4 10 0,0
10.08.2020 05:00:00 13,3 12,6 - - 5 3 NE 1020,4 11 0,0
10.08.2020 04:00:00 13,3 12,4 - - 9 5 ENE 1020,7 13 0,0
10.08.2020 03:00:00 13,1 12,2 - - 9 5 ENE 1021,0 13 0,0
10.08.2020 02:00:00 13,0 12,1 - - 11 6 ENE 1021,2 14 0,0
10.08.2020 01:00:00 12,8 12,0 - - 9 5 E 1021,6 13 0,0
10.08.2020 00:00:00 12,7 11,8 - - 9 5 E 1022,0 16 0,0
09.08.2020 23:00:00 12,7 11,6 - - 9 5 E 1022,1 17 0,0
09.08.2020 22:00:00 12,6 11,4 - - 8 4 E 1022,2 18 0,0
09.08.2020 21:00:00 13,1 11,3 - - 15 8 E 1022,2 22 0,0
09.08.2020 20:00:00 13,8 11,3 - - 16 9 E 1022,3 26 0,0
09.08.2020 19:00:00 14,7 11,5 - - 15 8 E 1022,2 29 0,0

tt = temperature
td = dewpoint
tt -20cm = temperature -20cm
tt -100cm = temperature -100cm
ff = wind speed
dd = wind direction
ppp = reduced air pressure
vv = visibility
rr = precipitation

Next stations